Wind_Speed
36 38 38 40 46 48 48 51 52 46 43 43 43 42 41 41 43 44 46 47 48 50 50 50 50 50 50 49 48 47 45 44 43 42 41 40 40 39 38 37 37 36 36 36
34 38 41 41 43 47 48 50 50 48 45 44 44 44 43 41 41 41 42 44 46 47 48 48 48 49 49 48 47 46 45 44 43 42 42 41 40 39 38 37 36 36 36 36
34 36 40 41 41 43 46 48 50 50 46 46 45 46 45 42 41 42 43 43 45 45 45 46 47 47 47 47 46 46 45 44 43 42 41 40 40 39 38 38 37 37 37 36
35 36 38 37 38 39 41 45 47 50 49 47 47 46 46 45 44 44 44 44 44 44 44 44 45 45 46 46 46 45 43 42 42 42 41 40 39 39 39 38 37 37 36 36
35 36 36 36 36 36 39 41 45 48 51 50 49 48 47 47 47 46 47 46 45 44 44 43 43 44 44 44 44 44 43 42 42 41 40 40 39 39 38 38 37 37 36 36
33 34 35 35 34 35 37 38 42 47 49 51 50 51 48 46 47 47 47 47 46 45 44 43 43 43 43 43 43 42 42 42 42 41 40 40 39 39 38 37 37 36 36 36
30 34 36 34 33 34 35 35 38 43 48 50 51 51 50 48 46 47 47 47 46 45 45 44 44 44 43 42 42 42 42 42 42 41 40 39 39 39 38 37 37 36 37 37
29 31 33 33 33 34 35 36 36 39 44 48 50 50 49 48 46 47 47 47 46 46 46 45 45 44 44 43 42 42 42 41 41 41 40 40 39 39 38 37 37 37 37 37
31 30 30 32 34 35 35 36 37 38 40 44 47 48 48 48 47 47 48 47 46 46 46 45 45 44 44 43 43 42 41 41 40 40 40 39 39 38 37 37 37 37 36 36
32 31 32 32 34 35 35 36 38 40 40 42 43 45 46 46 45 45 46 46 46 46 45 45 44 43 43 43 43 42 41 40 40 39 39 38 38 37 37 37 36 36 36 36
32 32 34 34 35 35 36 37 38 40 41 41 42 43 44 45 45 44 44 45 45 44 44 44 44 44 43 43 42 42 42 41 40 39 38 37 36 36 36 35 35 35 36 36
31 31 34 35 35 35 36 37 38 39 40 40 41 42 43 44 44 44 44 44 44 45 45 45 44 43 43 42 42 42 42 41 40 39 37 36 35 35 34 35 35 35 35 35
30 31 34 35 36 37 37 38 39 40 40 39 40 41 41 42 43 43 44 44 44 44 44 44 44 44 43 42 42 41 40 39 39 38 37 35 35 35 35 34 34 34 35 34
31 32 34 34 36 37 38 38 39 40 40 40 40 41 41 41 41 42 44 44 44 43 44 44 44 44 43 43 42 41 40 39 38 37 36 35 34 34 34 34 34 34 34 34
31 33 33 33 36 36 36 36 37 39 40 40 40 40 41 41 41 42 42 42 42 43 43 43 42 41 42 42 41 40 40 39 37 36 35 35 34 34 34 35 35 35 34 34
30 32 33 33 34 35 35 35 37 38 39 40 40 40 40 40 41 41 42 42 42 42 42 42 40 40 41 41 41 41 40 39 38 37 36 35 35 35 35 35 35 34 34 35
27 29 31 34 34 34 33 34 35 35 37 38 39 40 40 40 40 39 39 40 40 40 41 41 41 40 40 40 40 41 40 40 38 37 36 36 36 36 35 35 35 35 35 35
26 27 30 33 33 33 32 33 35 35 35 36 37 39 39 39 38 38 37 36 37 38 39 40 40 40 40 40 40 41 40 40 38 37 36 36 35 35 34 34 35 35 35 35
25 27 29 30 31 31 31 33 34 34 34 36 37 37 36 36 36 36 36 35 35 35 35 37 38 39 39 40 40 40 40 39 38 37 36 36 35 34 34 34 34 34 34 34
25 25 26 27 30 31 31 33 34 34 35 35 36 36 35 35 34 35 35 35 34 34 34 35 36 37 38 39 39 39 39 38 37 37 35 34 34 34 34 33 33 33 33 34
24 24 24 25 27 29 29 31 32 33 33 34 34 34 34 34 34 34 35 35 34 34 34 35 35 36 36 37 37 37 37 37 37 35 34 34 33 32 32 31 31 32 33 33
23 23 23 24 25 27 28 28 30 31 31 32 33 33 34 34 34 34 34 34 34 33 34 34 34 35 35 35 36 36 37 36 35 35 34 34 33 32 31 31 31 32 32 33
20 21 21 22 24 24 25 26 28 30 31 32 32 33 33 33 33 33 33 33 33 32 32 33 33 34 34 34 34 34 34 33 33 33 33 34 33 32 32 32 32 32 33 33
18 18 19 20 22 23 24 24 26 28 29 30 31 31 32 32 33 33 32 31 31 31 30 31 32 32 33 33 32 32 31 31 31 31 32 32 32 33 33 33 32 33 33 34
16 16 18 20 20 22 23 23 26 27 28 28 29 30 30 30 31 31 31 30 30 30 30 30 30 29 30 30 30 29 29 30 30 31 31 32 32 32 32 33 33 33 33 33
14 15 17 18 19 21 22 23 24 25 25 25 26 26 27 27 28 29 29 29 29 28 28 28 28 27 28 28 26 26 28 29 29 30 31 31 32 32 32 33 34 34 34 33
13 15 17 18 19 20 22 23 23 23 23 24 23 24 25 25 26 26 27 28 28 28 28 27 27 27 26 25 25 25 26 27 28 29 29 30 30 31 32 32 32 32 32 32
Wind_Direction
233 230 226 225 221 221 223 224 224 223 222 220 222 225 226 227 227 230 231 230 230 231 232 234 235 236 237 238 240 242 243 245 248 251 253 256 258 261 264 266 269 272 275 278
235 233 231 229 226 224 224 224 223 222 222 220 220 222 223 224 224 226 228 229 230 230 230 231 232 234 236 237 239 241 243 245 248 250 253 255 258 260 263 265 268 271 274 277
236 235 234 232 228 228 226 225 226 224 222 221 221 222 224 225 224 224 225 226 227 228 228 230 231 233 235 237 239 240 243 245 247 250 253 255 257 259 262 265 267 270 273 277
239 235 234 229 228 229 227 226 226 225 224 224 222 222 222 223 222 224 226 225 226 228 227 227 229 232 233 235 238 240 242 245 247 250 253 255 257 259 261 264 267 270 274 277
241 239 235 227 225 227 229 229 228 226 224 224 224 223 223 224 223 223 226 227 227 227 227 227 229 231 233 235 237 239 242 244 248 250 251 253 256 259 262 265 268 271 274 277
240 239 237 231 226 228 230 229 227 227 225 223 224 225 224 225 223 223 225 226 226 227 227 228 229 231 233 235 237 239 241 244 246 248 250 252 255 258 261 265 268 271 275 277
239 239 238 232 231 230 231 228 227 227 226 224 224 223 224 224 223 222 223 225 226 227 228 228 230 232 233 235 237 239 241 243 245 247 249 252 255 258 261 264 268 271 274 278
236 236 234 231 231 230 232 230 227 225 224 224 223 222 223 222 223 223 222 223 224 225 227 228 230 232 233 235 236 239 241 243 245 247 250 252 256 258 261 264 267 270 273 277
235 233 230 228 229 230 232 232 228 226 225 223 222 222 223 222 223 223 224 224 225 226 226 228 229 231 233 235 237 238 240 242 245 248 251 253 256 259 261 264 268 271 274 277
237 231 228 227 228 229 231 231 229 228 226 224 225 225 224 222 223 223 224 225 226 227 227 228 229 231 232 234 235 237 239 242 245 247 250 253 256 259 262 265 269 271 274 277
240 235 230 228 230 230 230 230 230 230 229 227 226 225 224 223 223 222 225 226 227 228 228 228 229 230 232 233 235 237 239 241 245 247 249 252 255 259 262 265 268 271 274 276
237 234 231 227 228 230 230 229 229 229 229 228 226 225 225 225 224 223 225 227 228 229 229 229 230 231 232 234 237 239 240 243 245 246 249 252 256 259 262 265 268 271 274 276
237 233 231 229 229 229 229 228 228 227 228 227 226 226 226 225 225 225 226 227 228 230 231 230 230 231 232 235 237 239 240 242 244 247 249 252 255 259 262 265 268 271 273 276
238 235 231 230 231 231 231 229 228 227 227 227 226 226 225 224 225 226 227 228 228 229 230 231 232 232 233 235 236 238 240 242 244 246 249 252 255 258 261 264 267 270 273 276
244 241 236 232 231 230 231 231 229 227 226 225 226 226 225 224 225 226 227 228 228 229 231 232 233 233 233 234 236 238 240 242 244 246 249 251 255 258 261 264 267 270 274 277
248 246 240 235 233 230 229 229 229 226 224 224 224 224 226 226 226 227 227 228 230 230 231 233 233 233 233 233 234 236 239 241 243 245 248 252 256 259 262 265 268 271 274 277
249 244 239 235 234 231 229 226 225 223 222 222 222 222 222 222 223 225 226 228 230 231 232 232 232 232 234 235 235 237 238 241 243 245 249 253 256 258 262 265 268 271 274 278
249 243 238 235 234 231 228 224 221 221 222 221 221 220 220 222 222 223 224 227 229 229 230 230 230 231 233 235 237 237 238 240 241 244 248 252 255 258 261 265 268 271 274 277
248 243 238 235 234 231 227 222 221 222 222 222 221 220 221 221 222 223 225 226 226 227 227 227 228 230 232 234 236 237 238 239 240 243 247 251 254 257 261 265 268 271 274 278
247 242 238 234 231 228 225 223 224 224 224 223 222 220 219 220 222 224 225 227 227 227 227 227 228 229 231 233 235 237 237 238 240 243 246 249 254 258 261 265 268 271 274 278
247 242 236 232 227 225 225 223 221 221 221 220 220 219 218 220 222 223 225 226 226 227 228 228 229 229 230 231 233 236 237 239 241 242 246 250 254 258 261 264 268 272 276 279
249 242 236 231 227 224 223 220 218 218 218 216 216 217 218 220 221 223 224 226 227 228 229 229 229 229 229 230 232 235 236 239 241 244 248 251 254 257 260 264 268 273 276 280
251 242 233 229 226 223 221 218 215 215 214 214 215 216 217 219 220 221 224 226 226 226 227 229 230 230 230 230 232 234 236 238 241 245 249 252 255 258 261 264 268 272 276 279
245 237 229 225 222 220 218 216 212 211 212 214 215 215 215 216 218 220 222 224 225 226 227 229 232 231 230 230 233 234 236 238 241 244 248 252 255 259 262 264 268 271 275 278
239 229 224 221 219 217 216 214 209 206 208 211 212 213 214 215 217 220 222 223 225 226 226 228 230 231 232 232 234 236 237 239 241 243 247 252 256 259 263 267 270 273 276 280
232 226 222 218 215 213 212 208 204 203 205 207 210 212 212 214 217 218 219 220 221 223 224 226 228 231 232 232 235 238 240 241 244 248 252 255 258 261 265 269 272 275 278 282
228 225 222 217 213 208 205 201 200 200 203 205 206 208 211 213 215 215 216 217 220 222 224 226 228 227 227 230 235 240 243 246 248 251 253 256 259 263 267 270 272 275 278 282
Height
5493 5497 5502 5507 5514 5520 5527 5535 5545 5555 5563 5573 5580 5586 5592 5599 5605 5612 5620 5627 5635 5642 5649 5656 5663 5670 5676 5682 5687 5692 5696 5701 5704 5707 5710 5712 5714 5715 5716 5717 5717 5717 5717 5717
5486 5490 5494 5499 5506 5512 5520 5528 5537 5546 5555 5563 5569 5575 5582 5589 5596 5603 5610 5617 5624 5631 5639 5646 5653 5659 5666 5671 5677 5682 5687 5691 5694 5697 5700 5702 5704 5706 5707 5707 5708 5708 5708 5708
5480 5483 5486 5493 5500 5506 5513 5521 5529 5537 5547 5552 5558 5565 5572 5580 5587 5593 5600 5607 5614 5621 5629 5636 5643 5649 5655 5661 5666 5671 5676 5680 5684 5687 5690 5692 5694 5696 5697 5698 5699 5699 5699 5698
5473 5477 5481 5490 5494 5499 5506 5513 5520 5528 5535 5542 5549 5556 5562 5569 5577 5584 5591 5598 5605 5612 5619 5626 5632 5639 5645 5650 5656 5661 5666 5670 5674 5677 5680 5682 5684 5686 5688 5689 5689 5690 5690 5689
5466 5469 5473 5482 5487 5492 5498 5505 5511 5517 5525 5533 5541 5547 5554 5560 5567 5575 5582 5589 5596 5603 5610 5617 5623 5629 5635 5641 5646 5651 5656 5660 5663 5667 5670 5672 5675 5677 5678 5679 5680 5680 5680 5680
5459 5462 5467 5475 5480 5484 5490 5496 5502 5508 5515 5523 5530 5538 5546 5551 5558 5565 5573 5580 5587 5594 5601 5608 5614 5620 5626 5631 5636 5641 5646 5650 5653 5657 5660 5662 5665 5666 5668 5669 5670 5671 5671 5670
5451 5454 5460 5468 5473 5478 5484 5489 5493 5498 5504 5512 5519 5528 5536 5542 5548 5556 5563 5571 5578 5585 5592 5599 5605 5611 5616 5622 5627 5632 5636 5640 5643 5647 5650 5652 5655 5657 5658 5660 5660 5661 5661 5660
5444 5448 5457 5462 5465 5470 5473 5478 5483 5488 5495 5502 5510 5518 5525 5533 5539 5547 5554 5561 5568 5575 5582 5589 5595 5601 5607 5612 5617 5621 5626 5630 5634 5637 5640 5642 5645 5647 5648 5650 5651 5651 5651 5651
5438 5444 5448 5452 5456 5460 5464 5470 5475 5480 5486 5493 5500 5508 5515 5523 5530 5537 5545 5552 5559 5566 5573 5579 5585 5591 5597 5602 5607 5612 5616 5620 5624 5627 5630 5632 5635 5637 5639 5640 5641 5641 5641 5641
5430 5435 5440 5443 5447 5452 5456 5461 5466 5472 5477 5484 5491 5498 5505 5513 5521 5528 5535 5542 5549 5556 5563 5569 5575 5581 5587 5592 5597 5602 5606 5610 5614 5617 5620 5623 5625 5627 5629 5630 5631 5632 5632 5631
5422 5427 5431 5435 5439 5443 5448 5452 5458 5463 5469 5475 5482 5489 5496 5503 5511 5519 5526 5532 5539 5546 5553 5559 5565 5571 5577 5582 5587 5592 5596 5600 5604 5607 5611 5613 5616 5618 5620 5621 5621 5622 5622 5621
5415 5419 5421 5427 5431 5435 5439 5444 5449 5455 5461 5467 5473 5480 5487 5494 5502 5509 5516 5523 5529 5536 5543 5549 5555 5561 5566 5572 5577 5582 5586 5590 5594 5598 5601 5604 5606 5608 5609 5611 5611 5612 5612 5611
5407 5409 5413 5418 5422 5426 5431 5436 5441 5446 5452 5458 5465 5472 5479 5486 5493 5500 5507 5513 5520 5527 5533 5539 5545 5551 5557 5562 5567 5572 5576 5581 5584 5588 5591 5594 5596 5598 5600 5601 5601 5602 5602 5601
5398 5400 5404 5409 5413 5418 5422 5427 5432 5438 5444 5450 5456 5463 5470 5477 5484 5491 5497 5504 5510 5517 5523 5529 5535 5541 5547 5552 5557 5562 5567 5571 5575 5578 5581 5584 5586 5588 5590 5591 5592 5592 5592 5591
5390 5392 5395 5400 5404 5409 5413 5418 5423 5429 5435 5441 5448 5454 5461 5468 5475 5481 5488 5494 5500 5507 5514 5520 5526 5531 5536 5541 5547 5552 5557 5561 5565 5568 5571 5574 5576 5578 5580 5581 5582 5582 5582 5581
5381 5383 5387 5391 5395 5400 5404 5409 5414 5420 5426 5432 5439 5446 5452 5459 5466 5472 5479 5485 5491 5497 5504 5510 5516 5521 5526 5531 5536 5542 5547 5551 5555 5558 5561 5564 5566 5568 5570 5571 5572 5572 5572 5571
5373 5375 5378 5382 5387 5391 5395 5401 5406 5411 5417 5424 5430 5437 5443 5450 5457 5464 5470 5476 5481 5487 5493 5500 5506 5511 5516 5521 5526 5531 5536 5541 5545 5548 5552 5554 5556 5558 5560 5561 5561 5562 5562 5561
5365 5367 5370 5374 5378 5382 5387 5392 5398 5403 5409 5415 5422 5428 5435 5442 5449 5455 5461 5467 5472 5478 5484 5489 5495 5501 5506 5512 5516 5521 5526 5531 5535 5538 5541 5544 5546 5548 5549 5550 5551 5551 5551 5551
5357 5360 5363 5366 5369 5374 5379 5384 5390 5395 5401 5407 5414 5421 5427 5434 5441 5447 5453 5458 5464 5469 5474 5480 5485 5491 5496 5501 5506 5511 5516 5520 5524 5528 5531 5534 5536 5538 5539 5540 5541 5541 5541 5540
5350 5352 5355 5358 5362 5366 5371 5376 5382 5387 5393 5399 5406 5413 5420 5426 5433 5439 5445 5451 5456 5461 5466 5471 5476 5481 5486 5492 5497 5502 5506 5510 5514 5518 5521 5523 5526 5528 5529 5530 5531 5531 5531 5530
5344 5346 5348 5351 5355 5359 5364 5369 5374 5380 5385 5391 5398 5405 5412 5419 5425 5431 5438 5443 5448 5453 5458 5462 5467 5472 5477 5482 5487 5492 5496 5500 5504 5508 5511 5514 5516 5518 5519 5520 5521 5521 5521 5520
5338 5339 5342 5345 5349 5353 5357 5362 5367 5373 5379 5385 5391 5398 5404 5411 5417 5424 5430 5435 5440 5445 5450 5455 5459 5464 5468 5473 5478 5483 5487 5491 5495 5498 5501 5504 5506 5508 5509 5510 5511 5511 5511 5511
5332 5333 5336 5339 5343 5347 5351 5356 5361 5367 5373 5379 5385 5392 5398 5404 5410 5417 5423 5428 5433 5437 5442 5447 5451 5456 5460 5465 5470 5474 5478 5482 5486 5489 5492 5494 5496 5498 5500 5500 5501 5501 5501 5501
5326 5328 5331 5334 5337 5341 5346 5351 5356 5361 5368 5374 5380 5386 5391 5397 5404 5410 5415 5420 5425 5430 5435 5439 5444 5448 5452 5457 5461 5466 5469 5473 5476 5480 5482 5485 5487 5488 5489 5490 5491 5491 5491 5490
5322 5324 5326 5329 5333 5337 5341 5346 5351 5357 5363 5369 5374 5380 5386 5392 5398 5403 5408 5413 5418 5423 5428 5433 5437 5441 5445 5449 5454 5457 5461 5464 5467 5470 5473 5475 5477 5479 5480 5481 5481 5481 5480 5480
5318 5320 5323 5325 5329 5333 5338 5342 5347 5353 5359 5364 5370 5376 5381 5386 5392 5397 5402 5407 5412 5417 5422 5426 5430 5434 5438 5442 5446 5449 5453 5456 5459 5462 5464 5466 5468 5469 5470 5470 5471 5470 5470 5469
5316 5318 5320 5322 5326 5330 5335 5340 5345 5350 5355 5361 5366 5372 5377 5382 5387 5392 5397 5402 5407 5412 5416 5420 5424 5428 5432 5436 5439 5442 5445 5448 5450 5453 5455 5457 5458 5459 5460 5460 5460 5460 5459 5459